This demonstration page uses our WeatherBlox Daily Observations layout. Learn more.

36.17497, -115.13722

Hourly Observations for September 8, 2018

Temp ( °F °C ) Dew Point ( °F °C ) Humidity (%) Winds ( mph kmh ) Pressure ( in mb ) Visibility ( mi km ) Precip ( " mm )
12:53 am 00:53 Clear 86 30 44 6.7 23 23 WNW 5 7 29.85 1011 10 16.09344 0 0
1:53 am 01:53 Clear 84 28.9 45 7.2 25 25 WNW 3 6 29.85 1011 10 16.09344 0 0
2:53 am 02:53 Clear 83 28.3 46 7.8 27 27 Calm 29.85 1011 10 16.09344 0 0
3:53 am 03:53 Clear 79 26.1 46 7.8 31 31 NW 7 11 29.85 1011 10 16.09344 0 0
4:53 am 04:53 Clear 80 26.7 46 7.8 30 30 WSW 3 6 29.85 1011 10 16.09344 0 0
5:53 am 05:53 Clear 80 26.7 44 6.7 28 28 NW 3 6 29.85 1011 10 16.09344 0 0
6:53 am 06:53 Sunny 81 27.2 41 5 24 24 Calm 29.88 1012 10 16.09344 0 0
7:53 am 07:53 Sunny 84 28.9 44 6.7 25 25 Calm 29.88 1012 10 16.09344 0 0
8:53 am 08:53 Sunny 88 31.1 43 6.1 21 21 Calm 29.88 1012 10 16.09344 0 0
9:53 am 09:53 Sunny 92 33.3 41 5 17 17 Calm 29.88 1012 10 16.09344 0 0
10:53 am 10:53 Sunny 95 35 40 4.4 15 15 SSE 3 6 29.88 1012 10 16.09344 0 0
11:53 am 11:53 Sunny 99 37.2 39 3.9 12 12 N 7 11 29.85 1011 10 16.09344 0 0
12:53 pm 12:53 Sunny 102 38.9 39 3.9 11 11 SE 10 17 29.8 1009 10 16.09344 0 0
1:53 pm 13:53 Sunny 105 40.6 36 2.2 9 9 SSW 14 22 29.8 1009 10 16.09344 0 0
2:53 pm 14:53 Sunny 105 40.6 35 1.7 9 9 WSW 15 24 29.74 1007 10 16.09344 0 0
3:53 pm 15:53 Sunny 106 41.1 34 1.1 8 8 SSW 10 17 29.74 1007 10 16.09344 0 0
4:53 pm 16:53 Sunny 105 40.6 34 1.1 8 8 WSW 17 28 29.71 1006 10 16.09344 0 0
5:53 pm 17:53 Sunny 103 39.4 32 0 8 8 SW 18 30 29.71 1006 10 16.09344 0 0
6:53 pm 18:53 Sunny 101 38.3 32 0 9 9 WSW 10 17 29.68 1005 10 16.09344 0 0
7:53 pm 19:53 Clear 99 37.2 33 0.6 10 10 SW 10 17 29.68 1005 10 16.09344 0 0
8:53 pm 20:53 Clear 97 36.1 29 -1.7 9 9 WSW 9 15 29.71 1006 10 16.09344 0 0
9:53 pm 21:53 Clear 94 34.4 29 -1.7 10 10 N 3 6 29.71 1006 10 16.09344 0 0
10:53 pm 22:53 Clear 93 33.9 30 -1.1 10 10 W 5 7 29.71 1006 10 16.09344 0 0
11:53 pm 23:53 Clear 87 30.6 34 1.1 15 15 Calm 29.71 1006 10 16.09344 0 0

Powered by AerisWeather